Home   Weather   Voronezh   Past weeks

Flag for Russia Past Weather in Voronezh, Russia — Yesterday and Last 2 Weeks

Now
28 °F

Light freezing rain. Ice fog.


Feels Like: 28 °F
Forecast: 18 / 34 °F
Wind: 1 mph from North

Location: Voronez

Current Time: Dec 9, 2016 at 8:35:14 pm

Latest Report: Dec 9, 2016 at 8:00 pm


Visibility: 3 mi

Pressure: 29.53 "Hg

Humidity: 100%

Dew Point: 28 °F

Location of VoronezhLocation

Past Weather in Voronezh — Graph

°F

Voronezh Temperature Yesterday

Maximum temperature yesterday: 23 °F (at 4:30 pm)
Minimum temperature yesterday: 10 °F (at 12:00 am)
Average temperature yesterday: 18 °F

High & Low Weather Summary for the Past Weeks

 TemperatureHumidityPressure
High36 °F (Nov 27, 6:30 pm)100% (Nov 25, 3:00 am)30.30 "Hg (Nov 25, 3:00 am)
Low5 °F (Dec 7, 3:30 am)58% (Nov 29, 3:30 pm)29.36 "Hg (Nov 28, 8:30 am)
Average22 °F88%29.83 "Hg
* Reported Nov 24 7:00 pm — Dec 9 7:00 pm, Voronezh, Weather by CustomWeather, © 2016

Note: Actual official high and low records may vary slightly from our data, if they occured in-between our weather recording intervals... More about our weather records

Advertising

Voronezh Weather History for the Previous 24 Hours

Scroll right to see more
 ConditionsComfort  
Time TempWeatherWind HumidityBarometerVisibility
7:00 pm
Fri, Dec 9
28 °FLight freezing rain. Overcast.1 mph93%29.53 "Hg3 mi
6:30 pm28 °FOvercast.3 mph93%29.53 "HgN/A
6:00 pm28 °FLight snow. Overcast.3 mph93%29.56 "Hg4 mi
5:30 pm28 °FLight snow. Overcast.3 mph93%29.56 "Hg6 mi
5:00 pm28 °FOvercast.3 mph93%29.56 "HgN/A
4:30 pm28 °FOvercast.1 mph93%29.56 "HgN/A
4:00 pm28 °FOvercast.No wind93%29.56 "HgN/A
3:00 pm28 °FOvercast.3 mph93%29.56 "HgN/A
2:30 pm28 °FOvercast.3 mph93%29.53 "HgN/A
2:00 pm28 °FOvercast.3 mph86%29.53 "HgN/A
1:30 pm28 °FOvercast.3 mph86%29.56 "HgN/A
1:00 pm28 °FOvercast.6 mph93%29.53 "HgN/A
12:00 pm28 °FOvercast.3 mph93%29.53 "HgN/A
11:30 am28 °FOvercast.No wind93%29.53 "HgN/A
11:00 am27 °FOvercast.No wind100%29.53 "HgN/A
10:30 am27 °FOvercast.1 mph93%29.53 "HgN/A
10:00 am27 °FOvercast.3 mph93%29.53 "HgN/A
9:30 am27 °FOvercast.3 mph93%29.53 "HgN/A
9:00 am27 °FOvercast.3 mph93%29.50 "HgN/A
8:30 am27 °FOvercast.3 mph93%29.50 "Hg5 mi
8:00 am27 °FOvercast.3 mph93%29.50 "Hg5 mi
7:30 am27 °FOvercast.3 mph93%29.47 "Hg6 mi
7:00 am27 °FOvercast.3 mph93%29.47 "HgN/A
6:30 am25 °FOvercast.No wind100%29.47 "HgN/A
6:00 am25 °FOvercast.No wind100%29.45 "Hg5 mi
5:30 am27 °FOvercast.No wind93%29.45 "Hg6 mi
5:00 am27 °FOvercast.No wind93%29.45 "HgN/A
4:30 am27 °FOvercast.No wind93%29.45 "HgN/A
4:00 am27 °FLight snow. Overcast.No wind93%29.45 "HgN/A
3:30 am25 °FLight snow. Overcast.No wind100%29.45 "Hg6 mi
3:00 am25 °FLight snow. Overcast.1 mph100%29.45 "Hg5 mi
2:30 am25 °FLight snow. Overcast.3 mph93%29.45 "Hg6 mi
2:00 am25 °FLight snow. Overcast.3 mph93%29.45 "Hg5 mi
1:30 am25 °FSnow. Low clouds.3 mph93%29.45 "Hg1 mi
1:00 am25 °FLight snow. Low clouds.3 mph93%29.47 "Hg3 mi
12:30 am23 °FLight snow. Overcast.3 mph100%29.47 "Hg4 mi
12:00 am23 °FCold.3 mph93%29.50 "Hg1 mi
11:30 pm
Thu, Dec 8
23 °FSnow. Low clouds.3 mph93%29.50 "Hg1 mi
11:00 pm23 °FCold.3 mph93%29.50 "Hg1 mi
10:30 pm23 °FCold.6 mph93%29.53 "Hg1 mi
10:00 pm23 °FLight snow. Overcast.6 mph86%29.56 "Hg6 mi
9:30 pm23 °FLight snow. Overcast.8 mph86%29.56 "HgN/A
9:00 pm23 °FLight snow. Overcast.8 mph86%29.59 "HgN/A
8:00 pm23 °FLight snow. Overcast.8 mph86%29.62 "Hg4 mi
Weather by CustomWeather, © 2016

See weather overviewHow to use our weather pages